sat.trackr.live / text

‹ back to catalog

APRIZESAT 2

NORAD 28366 · 2004-025A

PAYLOAD ACTIVE UNKNOWN

§ Identity

Operator
Country
US
Launch date
2004-06-29
Launch site
TYMSC
Launch vehicle
Mass (kg)
RCS (m²)
0.05

External: N2YO · Heavens-Above · Gunter

§ Orbital elements

Epoch: 2026-05-25T04:25:14.773728Z

Period
100.14 min
Inclination
98.0996°
Eccentricity
0.0104708
Mean motion
14.38026540 rev/d
Perigee alt
690.2 km
Apogee alt
839.8 km
Semi-major
7,143.2 km
B*
5.1011e-5
RAAN
312.4691°
Arg perigee
320.0849°
Mean anomaly
39.2673°
Rev number
14,833

§ Raw data

APRIZESAT 21 28366U 04025A   26145.18419877  .00000121  00000+0  51011-4 0  99942 28366  98.0996 312.4691 0104708 320.0849  39.2673 14.38026540148332

JSON: /api/v1/satellites/28366 · /tle

For live sub-satellite position, see the globe view (requires WebGL).

§ Visibility from observer

Set your observer location to see the next 7 days of passes ≥ 10°. The values pass through the URL so the page stays shareable.

No JS? Fill the form by hand. The geolocation button needs JavaScript.